Location: Newark
(40.2997°S, 67.9000°W)
Time: 02:59:41
(UTC+00:00)

Envisat - Visible Passes

Search period start: 13 December 2019 00:00
Search period end: 23 December 2019 00:00
Orbit: 764 x 766 km, 98.1° (Epoch: 12 December)

Date Brightness Start Highest point End Pass type
(mag) Time Alt. Az. Time Alt. Az. Time Alt. Az.
13 Dec 5.5 00:20:10 10° S 00:24:30 28° WSW 00:28:48 10° NW visible
15 Dec 6.0 00:46:30 10° SSW 00:49:43 17° WSW 00:52:53 10° W visible
18 Dec 5.9 00:34:48 10° SSW 00:38:33 21° WSW 00:42:18 10° WNW visible
20 Dec 6.4 01:01:41 10° SW 01:03:42 12° WSW 01:05:42 10° W visible
